STARLINK-4044 (52662 NORAD) Tracking and Keplerian Element Data

This shows tracking and keplerian element data for the satellite.

Feedback or suggestion? Click here.




ElementValue
Catalog52662
NameSTARLINK-4044
Epoch Orbit130
Epoch Day192.91667824
Epoch Year2022
RAAN35.3826
Inclination53.2174
Eccentricity0.0001665
Argument of Perigee43.951
Mean Anonmoly357.0054
Mean Motion15.19262258
Decay Rate-0.00725713
L11 52662U 22053G 22192.91667824 -.00725713 00000+0 -36492-1 0 9993
L22 52662 53.2174 35.3826 0001665 43.9510 357.0054 15.19262258 1301

Live tracking and technical data element details for STARLINK-4044 (NORAD 52662). STARLINK-4044 can be tracked NOW for your location showing map with azimuth and elevation plus other details from your city location.

Track the satellite on the map from your city or location and see movement details for azimuth, elevation, latitude, longitude, range, height, and movement on the map or in text.







IsCatalogInMostPopularTable: catalog: 52662, numindb: 6
Update: records affected: 1



GetName: 52662 STARLINK-4044

Hit Count: updated at: Sun, 14 Aug 2022 01:32:05 GMT